{"data":{"norad_id":69998,"epoch":"2026-09-20T00:48:40.453920Z","epoch_age_seconds":58050,"freshness":"FRESH","line1":"1 69998U 26159Z   26263.03380155  .00226432  00000+0  14719-2 0  9990","line2":"2 69998  97.2841 105.1346 0003187  65.5958 294.5640 15.75299077 12398","mean_motion":15.75299077,"eccentricity":0.0003187,"inclination_deg":97.2841,"raan_deg":105.1346,"arg_perigee_deg":65.5958,"mean_anomaly_deg":294.564,"bstar":0.0014719,"rev_number":1239,"period_min":91.411213338761,"perigee_km":341.63798268494,"apogee_km":345.922532745,"semimajor_km":6721.917257715,"source":"CELESTRAK","updated_at":"2026-09-20T09:00:44.332734Z"}}